Location: The Saddle
(36.8333°N, 80.3417°W)
Time: 09:06:10
(UTC-05:00)

A-11 Canister half - Pass Details

Date: 14 December 2023
Orbit: 1512 x 1687 km, 47.2° (Epoch: 27 February)

Event Time Altitude Azimuth Distance (km) Brightness Sun altitude
Rises 03:34:11 0° 301° (WNW) 4,799 - -45.5°
Reaches altitude 10° 03:37:15 10° 303° (WNW) 3,836 - -44.9°
Maximum altitude 03:47:08 80° 31° (NNE) 1,678 - -42.9°
Exits shadow 03:48:48 66° 97° (E) 1,783 9.3 -42.6°
Drops below altitude 10° 03:57:18 10° 118° (ESE) 3,937 11.7 -40.9°
Sets 04:00:29 0° 120° (ESE) 4,931 12.3 -40.2°
